Location: Archemont
(49.1579°N, 1.7598°E)
Time: 06:44:48
(UTC+00:00)

S-56A Canister/Altair - Pass Details

Date: 21 April 2024
Orbit: 638 x 2488 km, 38.9° (Epoch: 17 May)

Event Time Altitude Azimuth Distance (km) Brightness Sun altitude
Rises 18:21:57 0° 250° (WSW) 3,359 11.9 4.3°
Reaches altitude 10° 18:24:16 10° 241° (WSW) 2,591 11.1 4.0°
Maximum altitude 18:29:57 38° 175° (S) 1,691 9.2 3.1°
Drops below altitude 10° 18:38:04 10° 112° (ESE) 3,735 10.4 1.8°
Sets 18:42:06 0° 106° (ESE) 5,041 11.0 1.2°
